QPF
0.00 0.00 0.00 0.00 0.01 0.00 0.00 0.00 0.00 0.00 0.00 0.01 0.01 0.01 0.01 0.01 0.00 0.00 0.00 0.00 0.00 0.00 0.00 0.01 0.04 0.06 0.06 0.04 0.05 0.04 0.04 0.04 0.03 0.02 0.02 0.01 0.01 0.02 0.02 0.02 0.02 0.02 0.02 0.02 0.02 0.02 0.02 0.02 0.01
0.00 0.00 0.00 0.00 0.01 0.00 0.00 0.00 0.00 0.00 0.00 0.01 0.01 0.02 0.01 0.01 0.00 0.00 0.00 0.00 0.00 0.00 0.00 0.01 0.03 0.05 0.06 0.05 0.04 0.04 0.04 0.03 0.04 0.03 0.02 0.02 0.02 0.02 0.02 0.02 0.02 0.02 0.02 0.01 0.01 0.01 0.01 0.01 0.01
0.00 0.00 0.00 0.01 0.01 0.00 0.00 0.00 0.00 0.00 0.00 0.00 0.01 0.02 0.02 0.01 0.00 0.00 0.00 0.00 0.00 0.00 0.00 0.01 0.03 0.05 0.06 0.06 0.05 0.05 0.04 0.03 0.04 0.04 0.04 0.02 0.02 0.02 0.02 0.02 0.01 0.01 0.01 0.01 0.01 0.01 0.01 0.01 0.01
0.00 0.00 0.00 0.00 0.00 0.00 0.00 0.00 0.01 0.00 0.00 0.00 0.01 0.02 0.02 0.01 0.01 0.00 0.00 0.00 0.00 0.00 0.00 0.01 0.03 0.06 0.07 0.06 0.06 0.06 0.05 0.04 0.04 0.04 0.05 0.03 0.03 0.02 0.01 0.01 0.01 0.01 0.01 0.01 0.01 0.01 0.01 0.00 0.01
0.00 0.00 0.00 0.00 0.00 0.00 0.00 0.01 0.01 0.01 0.01 0.01 0.01 0.02 0.02 0.01 0.01 0.01 0.00 0.00 0.00 0.01 0.01 0.01 0.04 0.05 0.06 0.06 0.07 0.07 0.07 0.06 0.05 0.04 0.03 0.04 0.03 0.02 0.02 0.01 0.01 0.01 0.01 0.01 0.01 0.01 0.01 0.00 0.00
0.01 0.00 0.00 0.00 0.00 0.00 0.00 0.00 0.01 0.02 0.02 0.01 0.01 0.01 0.02 0.02 0.02 0.02 0.01 0.01 0.01 0.01 0.01 0.01 0.03 0.04 0.05 0.05 0.06 0.08 0.10 0.09 0.07 0.06 0.04 0.04 0.04 0.03 0.02 0.01 0.01 0.01 0.01 0.01 0.01 0.01 0.01 0.01 0.00
0.02 0.01 0.01 0.00 0.00 0.01 0.00 0.00 0.00 0.02 0.02 0.01 0.01 0.01 0.02 0.04 0.05 0.04 0.02 0.02 0.02 0.02 0.01 0.02 0.02 0.03 0.04 0.05 0.06 0.08 0.09 0.12 0.11 0.09 0.05 0.03 0.03 0.04 0.04 0.02 0.01 0.01 0.01 0.01 0.01 0.01 0.01 0.01 0.01
0.03 0.02 0.00 0.00 0.00 0.01 0.01 0.01 0.01 0.01 0.02 0.01 0.01 0.01 0.02 0.04 0.07 0.08 0.05 0.04 0.03 0.03 0.02 0.03 0.02 0.03 0.04 0.05 0.06 0.08 0.10 0.13 0.17 0.12 0.07 0.04 0.03 0.04 0.04 0.03 0.02 0.01 0.01 0.01 0.01 0.02 0.01 0.01 0.01
0.04 0.05 0.01 0.00 0.00 0.01 0.01 0.01 0.01 0.01 0.02 0.02 0.01 0.01 0.02 0.03 0.06 0.09 0.09 0.07 0.06 0.05 0.04 0.04 0.03 0.03 0.04 0.05 0.07 0.07 0.10 0.12 0.15 0.17 0.10 0.05 0.04 0.05 0.05 0.04 0.02 0.01 0.01 0.01 0.01 0.01 0.02 0.01 0.01
0.04 0.07 0.02 0.00 0.00 0.01 0.02 0.02 0.02 0.01 0.01 0.02 0.02 0.01 0.02 0.02 0.05 0.10 0.10 0.07 0.07 0.07 0.06 0.04 0.03 0.03 0.03 0.05 0.07 0.08 0.07 0.09 0.11 0.14 0.11 0.06 0.05 0.04 0.06 0.06 0.04 0.01 0.01 0.01 0.01 0.01 0.02 0.02 0.01
0.03 0.04 0.02 0.00 0.01 0.01 0.02 0.02 0.01 0.01 0.01 0.01 0.01 0.01 0.02 0.03 0.05 0.11 0.11 0.06 0.08 0.08 0.07 0.06 0.04 0.03 0.02 0.04 0.06 0.09 0.09 0.08 0.09 0.10 0.12 0.09 0.06 0.04 0.04 0.06 0.07 0.03 0.01 0.01 0.01 0.01 0.01 0.01 0.01
0.03 0.02 0.02 0.01 0.01 0.02 0.01 0.01 0.01 0.01 0.01 0.00 0.01 0.01 0.02 0.03 0.05 0.08 0.11 0.08 0.10 0.12 0.09 0.06 0.04 0.03 0.02 0.03 0.07 0.08 0.10 0.10 0.07 0.07 0.10 0.12 0.09 0.05 0.03 0.04 0.06 0.04 0.01 0.01 0.01 0.01 0.01 0.01 0.01
0.04 0.02 0.02 0.02 0.02 0.01 0.01 0.01 0.01 0.01 0.01 0.00 0.01 0.02 0.03 0.03 0.04 0.06 0.07 0.07 0.10 0.14 0.13 0.08 0.04 0.02 0.02 0.03 0.05 0.09 0.11 0.12 0.08 0.05 0.07 0.11 0.11 0.07 0.04 0.03 0.03 0.03 0.02 0.01 0.01 0.01 0.01 0.01 0.01
0.02 0.03 0.02 0.02 0.02 0.01 0.00 0.00 0.01 0.01 0.01 0.01 0.02 0.03 0.03 0.03 0.03 0.05 0.06 0.06 0.08 0.12 0.14 0.10 0.05 0.03 0.03 0.04 0.05 0.08 0.11 0.13 0.12 0.07 0.05 0.10 0.11 0.09 0.05 0.03 0.03 0.04 0.03 0.02 0.01 0.01 0.01 0.01 0.01
0.01 0.02 0.03 0.02 0.01 0.01 0.01 0.02 0.03 0.01 0.01 0.01 0.02 0.04 0.03 0.04 0.05 0.04 0.04 0.04 0.06 0.10 0.12 0.10 0.06 0.04 0.04 0.04 0.05 0.07 0.09 0.15 0.16 0.08 0.05 0.08 0.11 0.10 0.07 0.05 0.04 0.04 0.03 0.03 0.02 0.01 0.01 0.01 0.01
0.01 0.01 0.02 0.02 0.01 0.01 0.02 0.03 0.03 0.02 0.02 0.02 0.03 0.04 0.03 0.05 0.07 0.07 0.07 0.06 0.06 0.10 0.13 0.11 0.06 0.05 0.06 0.05 0.04 0.07 0.08 0.11 0.14 0.10 0.07 0.07 0.08 0.10 0.07 0.06 0.05 0.04 0.03 0.04 0.04 0.03 0.02 0.01 0.01
0.01 0.01 0.02 0.03 0.03 0.02 0.02 0.02 0.02 0.02 0.03 0.03 0.03 0.04 0.03 0.04 0.06 0.05 0.07 0.08 0.08 0.09 0.12 0.10 0.06 0.04 0.05 0.06 0.04 0.07 0.08 0.09 0.10 0.11 0.10 0.07 0.06 0.07 0.06 0.06 0.07 0.05 0.04 0.03 0.04 0.05 0.03 0.01 0.01
0.00 0.01 0.02 0.04 0.04 0.04 0.04 0.05 0.06 0.05 0.04 0.03 0.03 0.03 0.02 0.02 0.03 0.03 0.04 0.07 0.09 0.09 0.11 0.10 0.07 0.04 0.04 0.07 0.06 0.08 0.08 0.08 0.09 0.10 0.10 0.09 0.08 0.07 0.07 0.05 0.07 0.07 0.06 0.05 0.03 0.03 0.04 0.02 0.01
0.00 0.00 0.00 0.01 0.02 0.02 0.03 0.05 0.07 0.06 0.04 0.03 0.02 0.02 0.02 0.02 0.02 0.02 0.03 0.04 0.06 0.09 0.09 0.09 0.07 0.04 0.03 0.05 0.08 0.09 0.08 0.07 0.08 0.08 0.08 0.09 0.08 0.08 0.08 0.06 0.05 0.06 0.07 0.07 0.08 0.07 0.06 0.03 0.02
0.00 0.00 0.00 0.00 0.00 0.01 0.01 0.02 0.03 0.03 0.02 0.01 0.01 0.01 0.01 0.01 0.01 0.01 0.02 0.04 0.06 0.08 0.08 0.09 0.07 0.05 0.04 0.04 0.09 0.10 0.07 0.06 0.06 0.08 0.07 0.08 0.08 0.08 0.08 0.08 0.04 0.04 0.03 0.03 0.05 0.07 0.11 0.11 0.08
0.00 0.00 0.00 0.00 0.00 0.00 0.01 0.02 0.02 0.02 0.00 0.00 0.00 0.00 0.01 0.01 0.01 0.01 0.01 0.03 0.04 0.07 0.07 0.07 0.06 0.05 0.05 0.05 0.07 0.09 0.07 0.05 0.05 0.06 0.05 0.06 0.07 0.08 0.08 0.07 0.05 0.03 0.02 0.01 0.02 0.03 0.04 0.08 0.10
0.00 0.00 0.00 0.00 0.00 0.00 0.00 0.01 0.01 0.00 0.00 0.00 0.00 0.00 0.00 0.00 0.01 0.01 0.01 0.02 0.04 0.06 0.07 0.04 0.04 0.03 0.03 0.04 0.05 0.05 0.06 0.05 0.05 0.04 0.04 0.05 0.06 0.07 0.07 0.07 0.05 0.02 0.01 0.01 0.01 0.01 0.02 0.03 0.05
0.00 0.00 0.00 0.00 0.00 0.00 0.00 0.00 0.00 0.00 0.00 0.00 0.00 0.00 0.00 0.00 0.01 0.01 0.01 0.02 0.03 0.04 0.06 0.04 0.03 0.03 0.03 0.04 0.05 0.04 0.05 0.05 0.05 0.03 0.02 0.04 0.05 0.07 0.07 0.06 0.04 0.02 0.01 0.01 0.00 0.01 0.02 0.02 0.02
0.00 0.00 0.00 0.00 0.00 0.01 0.00 0.00 0.00 0.00 0.00 0.00 0.00 0.00 0.00 0.00 0.00 0.01 0.01 0.02 0.02 0.03 0.04 0.04 0.03 0.04 0.04 0.04 0.04 0.03 0.04 0.05 0.06 0.03 0.02 0.03 0.04 0.06 0.07 0.06 0.05 0.03 0.01 0.00 0.00 0.00 0.01 0.02 0.02
0.00 0.00 0.01 0.01 0.01 0.00 0.00 0.00 0.00 0.00 0.00 0.00 0.00 0.00 0.00 0.00 0.00 0.01 0.01 0.01 0.02 0.02 0.03 0.05 0.05 0.04 0.04 0.03 0.03 0.03 0.03 0.05 0.06 0.03 0.01 0.02 0.03 0.05 0.06 0.06 0.05 0.03 0.01 0.00 0.00 0.00 0.00 0.00 0.02
0.00 0.00 0.00 0.00 0.00 0.00 0.00 0.00 0.00 0.00 0.00 0.00 0.00 0.00 0.00 0.00 0.00 0.01 0.01 0.01 0.01 0.01 0.02 0.04 0.05 0.05 0.05 0.04 0.04 0.03 0.03 0.05 0.06 0.04 0.02 0.02 0.02 0.03 0.04 0.05 0.05 0.04 0.03 0.01 0.00 0.00 0.00 0.00 0.00
0.00 0.00 0.00 0.01 0.00 0.00 0.00 0.00 0.00 0.00 0.00 0.00 0.00 0.00 0.00 0.00 0.01 0.02 0.02 0.01 0.01 0.01 0.02 0.03 0.04 0.04 0.05 0.04 0.04 0.03 0.03 0.04 0.05 0.04 0.03 0.03 0.04 0.04 0.04 0.05 0.04 0.04 0.03 0.02 0.01 0.00 0.00 0.00 0.00
0.00 0.00 0.01 0.01 0.01 0.00 0.00 0.00 0.00 0.00 0.00 0.00 0.00 0.00 0.00 0.01 0.02 0.02 0.01 0.01 0.01 0.01 0.02 0.03 0.03 0.03 0.03 0.04 0.04 0.04 0.03 0.03 0.04 0.04 0.04 0.04 0.04 0.05 0.05 0.05 0.05 0.04 0.03 0.03 0.02 0.01 0.01 0.00 0.00
0.00 0.00 0.00 0.01 0.01 0.01 0.00 0.00 0.00 0.00 0.00 0.00 0.00 0.00 0.00 0.01 0.02 0.01 0.01 0.01 0.01 0.01 0.02 0.02 0.02 0.02 0.02 0.02 0.03 0.03 0.03 0.03 0.03 0.03 0.03 0.03 0.03 0.04 0.04 0.05 0.04 0.05 0.04 0.03 0.03 0.02 0.01 0.01 0.00
0.00 0.00 0.00 0.01 0.01 0.01 0.01 0.00 0.00 0.00 0.00 0.00 0.00 0.00 0.00 0.01 0.01 0.01 0.00 0.00 0.01 0.01 0.01 0.01 0.01 0.01 0.01 0.01 0.02 0.03 0.03 0.03 0.03 0.03 0.03 0.02 0.02 0.03 0.03 0.04 0.03 0.03 0.03 0.02 0.02 0.02 0.01 0.01 0.01
MSLP
1017.03 1016.77 1016.44 1016.01 1015.50 1014.92 1014.31 1013.74 1013.25 1012.91 1012.71 1012.66 1012.72 1012.82 1012.93 1012.99 1012.99 1012.94 1012.88 1012.87 1012.97 1013.20 1013.59 1014.11 1014.71 1015.32 1015.88 1016.34 1016.67 1016.87 1016.98 1017.02 1017.06 1017.12 1017.22 1017.36 1017.53 1017.68 1017.79 1017.84 1017.83 1017.77 1017.67 1017.56 1017.45 1017.35 1017.27 1017.18 1017.08
1017.14 1016.80 1016.36 1015.81 1015.15 1014.42 1013.68 1013.00 1012.45 1012.08 1011.92 1011.93 1012.08 1012.30 1012.52 1012.68 1012.76 1012.77 1012.75 1012.76 1012.86 1013.10 1013.49 1014.02 1014.64 1015.29 1015.89 1016.40 1016.78 1017.02 1017.16 1017.24 1017.30 1017.37 1017.47 1017.61 1017.76 1017.89 1017.98 1018.02 1018.00 1017.93 1017.84 1017.73 1017.63 1017.54 1017.45 1017.34 1017.20
1017.30 1016.90 1016.35 1015.67 1014.87 1014.00 1013.13 1012.35 1011.74 1011.35 1011.21 1011.28 1011.52 1011.85 1012.18 1012.45 1012.63 1012.72 1012.75 1012.79 1012.90 1013.14 1013.53 1014.06 1014.68 1015.33 1015.95 1016.48 1016.89 1017.17 1017.35 1017.46 1017.54 1017.62 1017.73 1017.85 1017.98 1018.09 1018.16 1018.18 1018.15 1018.08 1017.99 1017.89 1017.81 1017.72 1017.63 1017.51 1017.34
1017.53 1017.06 1016.42 1015.63 1014.71 1013.72 1012.75 1011.89 1011.21 1010.80 1010.67 1010.79 1011.09 1011.50 1011.93 1012.31 1012.58 1012.75 1012.86 1012.95 1013.09 1013.34 1013.73 1014.24 1014.84 1015.48 1016.08 1016.61 1017.02 1017.32 1017.52 1017.65 1017.76 1017.86 1017.97 1018.09 1018.21 1018.30 1018.35 1018.35 1018.30 1018.23 1018.15 1018.07 1018.00 1017.93 1017.84 1017.72 1017.55
1017.76 1017.25 1016.56 1015.70 1014.70 1013.63 1012.59 1011.66 1010.95 1010.51 1010.36 1010.49 1010.83 1011.29 1011.79 1012.24 1012.60 1012.86 1013.04 1013.20 1013.39 1013.66 1014.05 1014.54 1015.11 1015.71 1016.28 1016.78 1017.18 1017.47 1017.68 1017.83 1017.95 1018.07 1018.19 1018.31 1018.43 1018.51 1018.54 1018.53 1018.48 1018.41 1018.34 1018.27 1018.22 1018.17 1018.10 1017.99 1017.82
1017.95 1017.44 1016.73 1015.84 1014.82 1013.72 1012.65 1011.69 1010.94 1010.47 1010.30 1010.41 1010.73 1011.21 1011.73 1012.23 1012.66 1012.99 1013.25 1013.48 1013.73 1014.04 1014.43 1014.91 1015.45 1016.00 1016.52 1016.97 1017.34 1017.62 1017.82 1017.98 1018.12 1018.25 1018.39 1018.53 1018.64 1018.72 1018.76 1018.74 1018.70 1018.63 1018.57 1018.52 1018.48 1018.45 1018.39 1018.30 1018.14
1018.05 1017.55 1016.87 1016.01 1015.01 1013.94 1012.89 1011.93 1011.17 1010.68 1010.46 1010.52 1010.80 1011.23 1011.74 1012.25 1012.71 1013.10 1013.43 1013.73 1014.04 1014.40 1014.81 1015.29 1015.80 1016.30 1016.78 1017.18 1017.51 1017.76 1017.96 1018.12 1018.27 1018.42 1018.58 1018.73 1018.85 1018.94 1018.98 1018.97 1018.93 1018.87 1018.82 1018.78 1018.76 1018.73 1018.69 1018.61 1018.48
1018.04 1017.57 1016.94 1016.14 1015.21 1014.21 1013.21 1012.30 1011.55 1011.03 1010.77 1010.75 1010.96 1011.32 1011.77 1012.25 1012.71 1013.14 1013.52 1013.89 1014.27 1014.68 1015.13 1015.61 1016.10 1016.58 1017.01 1017.38 1017.67 1017.90 1018.09 1018.25 1018.41 1018.58 1018.75 1018.91 1019.04 1019.14 1019.19 1019.18 1019.15 1019.10 1019.06 1019.03 1019.01 1019.00 1018.97 1018.90 1018.79
1017.90 1017.48 1016.90 1016.18 1015.35 1014.44 1013.53 1012.68 1011.96 1011.43 1011.12 1011.03 1011.14 1011.40 1011.77 1012.20 1012.64 1013.08 1013.51 1013.94 1014.38 1014.84 1015.33 1015.83 1016.33 1016.79 1017.20 1017.54 1017.81 1018.03 1018.21 1018.38 1018.55 1018.72 1018.90 1019.06 1019.20 1019.30 1019.35 1019.36 1019.33 1019.29 1019.25 1019.23 1019.22 1019.21 1019.20 1019.15 1019.07
1017.66 1017.26 1016.74 1016.10 1015.37 1014.57 1013.75 1012.98 1012.30 1011.77 1011.42 1011.25 1011.27 1011.43 1011.72 1012.08 1012.49 1012.93 1013.38 1013.86 1014.36 1014.87 1015.41 1015.94 1016.45 1016.92 1017.33 1017.66 1017.93 1018.15 1018.33 1018.51 1018.68 1018.85 1019.03 1019.19 1019.32 1019.41 1019.45 1019.46 1019.43 1019.40 1019.38 1019.36 1019.37 1019.38 1019.38 1019.36 1019.31
1017.35 1016.96 1016.47 1015.90 1015.24 1014.54 1013.82 1013.11 1012.48 1011.96 1011.57 1011.35 1011.28 1011.36 1011.57 1011.88 1012.25 1012.69 1013.17 1013.68 1014.23 1014.79 1015.37 1015.94 1016.48 1016.96 1017.38 1017.73 1018.02 1018.25 1018.45 1018.62 1018.80 1018.97 1019.13 1019.27 1019.39 1019.46 1019.49 1019.49 1019.47 1019.45 1019.44 1019.45 1019.48 1019.52 1019.55 1019.56 1019.55
1016.99 1016.58 1016.10 1015.57 1014.97 1014.34 1013.69 1013.05 1012.45 1011.94 1011.54 1011.28 1011.16 1011.18 1011.33 1011.59 1011.95 1012.39 1012.89 1013.44 1014.03 1014.64 1015.25 1015.86 1016.42 1016.94 1017.39 1017.76 1018.07 1018.33 1018.55 1018.74 1018.91 1019.08 1019.22 1019.34 1019.42 1019.47 1019.48 1019.47 1019.46 1019.45 1019.47 1019.51 1019.58 1019.66 1019.73 1019.80 1019.84
1016.60 1016.16 1015.67 1015.14 1014.57 1013.98 1013.38 1012.78 1012.22 1011.72 1011.32 1011.03 1010.89 1010.88 1011.01 1011.26 1011.62 1012.08 1012.60 1013.19 1013.81 1014.45 1015.10 1015.73 1016.33 1016.87 1017.34 1017.75 1018.10 1018.39 1018.63 1018.84 1019.02 1019.17 1019.30 1019.39 1019.45 1019.47 1019.46 1019.45 1019.44 1019.45 1019.50 1019.58 1019.70 1019.83 1019.97 1020.09 1020.18
1016.20 1015.70 1015.19 1014.65 1014.09 1013.52 1012.94 1012.37 1011.82 1011.33 1010.93 1010.65 1010.50 1010.49 1010.63 1010.90 1011.29 1011.78 1012.34 1012.95 1013.60 1014.27 1014.94 1015.59 1016.20 1016.77 1017.27 1017.71 1018.09 1018.42 1018.69 1018.92 1019.12 1019.27 1019.38 1019.45 1019.49 1019.49 1019.47 1019.46 1019.46 1019.49 1019.57 1019.70 1019.87 1020.06 1020.25 1020.44 1020.59
1015.77 1015.23 1014.69 1014.14 1013.58 1013.01 1012.44 1011.87 1011.33 1010.84 1010.45 1010.17 1010.04 1010.06 1010.23 1010.54 1010.97 1011.51 1012.11 1012.76 1013.43 1014.12 1014.79 1015.45 1016.07 1016.65 1017.18 1017.65 1018.06 1018.42 1018.73 1018.99 1019.20 1019.36 1019.47 1019.54 1019.57 1019.56 1019.55 1019.53 1019.55 1019.60 1019.71 1019.88 1020.09 1020.32 1020.57 1020.80 1021.01
1015.31 1014.76 1014.21 1013.65 1013.09 1012.53 1011.95 1011.37 1010.82 1010.33 1009.93 1009.67 1009.55 1009.61 1009.82 1010.19 1010.67 1011.25 1011.90 1012.58 1013.27 1013.97 1014.65 1015.31 1015.93 1016.52 1017.06 1017.56 1018.00 1018.39 1018.73 1019.02 1019.26 1019.44 1019.57 1019.65 1019.68 1019.69 1019.68 1019.68 1019.71 1019.78 1019.91 1020.09 1020.33 1020.59 1020.87 1021.13 1021.37
1014.83 1014.29 1013.76 1013.23 1012.68 1012.11 1011.52 1010.92 1010.34 1009.83 1009.42 1009.16 1009.06 1009.14 1009.41 1009.82 1010.36 1010.99 1011.68 1012.39 1013.10 1013.80 1014.48 1015.14 1015.76 1016.35 1016.91 1017.42 1017.89 1018.31 1018.69 1019.01 1019.27 1019.48 1019.65 1019.76 1019.82 1019.86 1019.87 1019.89 1019.93 1020.01 1020.14 1020.33 1020.56 1020.82 1021.09 1021.36 1021.60
1014.34 1013.86 1013.37 1012.88 1012.35 1011.78 1011.17 1010.54 1009.92 1009.37 1008.93 1008.65 1008.55 1008.65 1008.95 1009.41 1009.99 1010.66 1011.38 1012.12 1012.85 1013.56 1014.25 1014.91 1015.54 1016.14 1016.71 1017.24 1017.73 1018.17 1018.58 1018.93 1019.23 1019.48 1019.68 1019.83 1019.95 1020.02 1020.08 1020.12 1020.18 1020.26 1020.38 1020.54 1020.74 1020.97 1021.21 1021.46 1021.68
1013.88 1013.47 1013.06 1012.62 1012.12 1011.55 1010.91 1010.23 1009.55 1008.94 1008.45 1008.12 1008.01 1008.11 1008.42 1008.90 1009.52 1010.23 1010.97 1011.74 1012.49 1013.21 1013.92 1014.59 1015.23 1015.85 1016.44 1016.99 1017.50 1017.97 1018.39 1018.77 1019.10 1019.39 1019.64 1019.84 1020.01 1020.14 1020.24 1020.32 1020.40 1020.48 1020.58 1020.70 1020.86 1021.04 1021.23 1021.43 1021.62
1013.46 1013.15 1012.82 1012.44 1011.96 1011.38 1010.70 1009.96 1009.20 1008.50 1007.93 1007.55 1007.40 1007.48 1007.78 1008.27 1008.91 1009.64 1010.41 1011.20 1011.97 1012.72 1013.45 1014.15 1014.82 1015.47 1016.09 1016.66 1017.20 1017.68 1018.13 1018.53 1018.89 1019.21 1019.50 1019.76 1019.98 1020.17 1020.33 1020.45 1020.56 1020.64 1020.72 1020.81 1020.92 1021.04 1021.18 1021.32 1021.46
1013.11 1012.90 1012.66 1012.32 1011.86 1011.25 1010.50 1009.67 1008.81 1008.02 1007.36 1006.91 1006.70 1006.74 1007.03 1007.52 1008.16 1008.90 1009.69 1010.50 1011.30 1012.08 1012.85 1013.59 1014.31 1015.00 1015.65 1016.26 1016.82 1017.33 1017.79 1018.20 1018.58 1018.93 1019.25 1019.56 1019.84 1020.10 1020.31 1020.49 1020.63 1020.73 1020.81 1020.88 1020.95 1021.02 1021.11 1021.20 1021.29
1012.83 1012.72 1012.54 1012.24 1011.76 1011.10 1010.28 1009.34 1008.37 1007.47 1006.72 1006.19 1005.92 1005.93 1006.20 1006.67 1007.31 1008.06 1008.86 1009.68 1010.51 1011.33 1012.13 1012.92 1013.70 1014.44 1015.15 1015.80 1016.39 1016.92 1017.39 1017.81 1018.20 1018.56 1018.92 1019.26 1019.59 1019.91 1020.19 1020.42 1020.61 1020.75 1020.84 1020.91 1020.97 1021.02 1021.07 1021.13 1021.20
1012.60 1012.57 1012.44 1012.14 1011.63 1010.91 1009.99 1008.95 1007.88 1006.88 1006.04 1005.45 1005.13 1005.11 1005.35 1005.81 1006.45 1007.18 1007.99 1008.82 1009.66 1010.51 1011.36 1012.20 1013.03 1013.83 1014.59 1015.29 1015.92 1016.47 1016.95 1017.38 1017.77 1018.14 1018.51 1018.88 1019.26 1019.62 1019.96 1020.26 1020.50 1020.69 1020.83 1020.92 1020.99 1021.05 1021.10 1021.15 1021.21
1012.39 1012.42 1012.32 1012.00 1011.44 1010.64 1009.63 1008.50 1007.34 1006.26 1005.37 1004.74 1004.40 1004.36 1004.59 1005.04 1005.65 1006.38 1007.17 1008.00 1008.84 1009.70 1010.58 1011.46 1012.34 1013.19 1014.01 1014.75 1015.42 1016.00 1016.49 1016.92 1017.31 1017.69 1018.07 1018.46 1018.86 1019.27 1019.66 1020.02 1020.33 1020.57 1020.76 1020.90 1021.00 1021.09 1021.17 1021.24 1021.31
1012.16 1012.23 1012.12 1011.78 1011.17 1010.30 1009.22 1008.02 1006.80 1005.69 1004.78 1004.15 1003.81 1003.77 1004.00 1004.44 1005.04 1005.74 1006.50 1007.30 1008.12 1008.98 1009.85 1010.76 1011.67 1012.56 1013.42 1014.21 1014.91 1015.51 1016.03 1016.47 1016.86 1017.24 1017.62 1018.02 1018.45 1018.88 1019.32 1019.72 1020.08 1020.38 1020.62 1020.81 1020.97 1021.10 1021.22 1021.34 1021.45
1011.86 1011.95 1011.83 1011.45 1010.79 1009.87 1008.75 1007.53 1006.31 1005.21 1004.33 1003.72 1003.42 1003.40 1003.64 1004.08 1004.65 1005.31 1006.03 1006.78 1007.56 1008.38 1009.23 1010.13 1011.04 1011.96 1012.84 1013.67 1014.40 1015.03 1015.56 1016.02 1016.42 1016.80 1017.18 1017.59 1018.03 1018.48 1018.94 1019.37 1019.77 1020.11 1020.40 1020.64 1020.84 1021.02 1021.19 1021.35 1021.51
1011.48 1011.56 1011.41 1011.00 1010.31 1009.37 1008.25 1007.05 1005.88 1004.85 1004.04 1003.50 1003.25 1003.28 1003.53 1003.96 1004.50 1005.12 1005.77 1006.45 1007.16 1007.92 1008.73 1009.59 1010.49 1011.41 1012.30 1013.14 1013.89 1014.55 1015.11 1015.58 1016.00 1016.38 1016.77 1017.18 1017.62 1018.08 1018.54 1018.98 1019.40 1019.76 1020.07 1020.34 1020.58 1020.80 1021.01 1021.22 1021.42
1011.00 1011.04 1010.87 1010.43 1009.73 1008.81 1007.74 1006.61 1005.53 1004.60 1003.90 1003.46 1003.29 1003.36 1003.64 1004.05 1004.56 1005.11 1005.69 1006.29 1006.92 1007.60 1008.35 1009.16 1010.02 1010.91 1011.80 1012.64 1013.41 1014.08 1014.66 1015.16 1015.59 1015.99 1016.39 1016.80 1017.23 1017.68 1018.13 1018.57 1018.98 1019.34 1019.65 1019.93 1020.17 1020.41 1020.65 1020.88 1021.12
1010.42 1010.42 1010.20 1009.75 1009.07 1008.20 1007.21 1006.20 1005.25 1004.46 1003.88 1003.55 1003.45 1003.58 1003.86 1004.26 1004.72 1005.21 1005.71 1006.23 1006.78 1007.38 1008.05 1008.80 1009.62 1010.47 1011.34 1012.17 1012.94 1013.63 1014.23 1014.74 1015.20 1015.61 1016.02 1016.43 1016.86 1017.29 1017.73 1018.14 1018.53 1018.86 1019.16 1019.42 1019.65 1019.88 1020.12 1020.37 1020.63
1009.78 1009.72 1009.47 1009.02 1008.38 1007.59 1006.71 1005.83 1005.02 1004.37 1003.92 1003.68 1003.66 1003.81 1004.10 1004.47 1004.88 1005.31 1005.74 1006.18 1006.66 1007.20 1007.81 1008.51 1009.28 1010.10 1010.93 1011.75 1012.51 1013.20 1013.81 1014.34 1014.81 1015.25 1015.66 1016.08 1016.50 1016.92 1017.33 1017.72 1018.07 1018.38 1018.64 1018.87 1019.07 1019.28 1019.50 1019.74 1020.01
Thickness
5694 5696 5698 5697 5692 5689 5691 5693 5695 5695 5698 5702 5703 5705 5709 5712 5711 5708 5714 5719 5719 5719 5718 5716 5715 5715 5715 5716 5716 5716 5717 5717 5718 5718 5719 5719 5719 5719 5719 5718 5718 5718 5718 5718 5718 5718 5718 5717 5717
5688 5690 5690 5687 5683 5682 5685 5689 5685 5689 5692 5693 5695 5698 5702 5706 5708 5708 5709 5711 5713 5714 5713 5712 5710 5710 5711 5711 5711 5712 5712 5713 5713 5714 5715 5715 5715 5715 5715 5715 5714 5714 5714 5714 5714 5714 5714 5713 5713
5682 5683 5681 5678 5676 5681 5682 5681 5681 5681 5684 5685 5688 5692 5695 5698 5701 5702 5704 5705 5707 5708 5707 5706 5704 5705 5705 5706 5706 5707 5708 5708 5709 5709 5710 5710 5711 5711 5710 5710 5710 5710 5710 5710 5710 5710 5709 5709 5709
5677 5675 5673 5670 5669 5673 5674 5675 5674 5673 5676 5679 5681 5684 5688 5690 5694 5697 5698 5699 5701 5702 5701 5700 5699 5699 5700 5700 5701 5701 5702 5703 5704 5704 5705 5706 5706 5706 5706 5706 5706 5706 5706 5706 5706 5706 5706 5705 5705
5670 5667 5662 5661 5663 5665 5666 5667 5666 5667 5669 5672 5673 5677 5680 5683 5687 5690 5691 5693 5694 5695 5694 5693 5692 5693 5693 5694 5695 5696 5697 5697 5698 5699 5700 5700 5701 5701 5701 5701 5701 5701 5702 5702 5701 5701 5702 5702 5702
5659 5659 5656 5657 5658 5657 5658 5659 5659 5661 5664 5665 5666 5668 5674 5677 5679 5681 5684 5685 5687 5688 5687 5687 5686 5686 5687 5688 5689 5690 5691 5692 5693 5693 5694 5695 5695 5696 5696 5696 5696 5697 5697 5697 5697 5697 5697 5698 5697
5651 5650 5651 5653 5650 5650 5651 5652 5653 5655 5657 5659 5661 5662 5669 5670 5672 5674 5676 5678 5679 5680 5680 5680 5680 5680 5680 5681 5682 5683 5684 5685 5686 5687 5687 5688 5689 5690 5690 5691 5691 5692 5692 5692 5692 5692 5693 5693 5693
5646 5643 5641 5643 5643 5645 5646 5645 5647 5649 5652 5654 5654 5656 5661 5664 5665 5666 5668 5670 5672 5673 5673 5673 5673 5673 5673 5674 5674 5676 5677 5678 5679 5679 5680 5681 5682 5684 5684 5685 5686 5686 5687 5687 5687 5687 5688 5688 5688
5637 5634 5636 5639 5638 5639 5639 5638 5640 5643 5645 5646 5648 5652 5655 5657 5657 5658 5660 5662 5663 5665 5665 5665 5666 5666 5666 5667 5667 5668 5670 5671 5672 5673 5673 5674 5676 5678 5679 5679 5679 5680 5681 5681 5681 5682 5682 5682 5682
5631 5629 5632 5633 5634 5633 5632 5632 5633 5635 5638 5640 5642 5645 5647 5648 5650 5651 5653 5654 5655 5656 5657 5657 5658 5658 5658 5659 5660 5662 5663 5665 5667 5667 5668 5669 5670 5671 5673 5672 5673 5673 5674 5675 5675 5675 5676 5677 5679
5626 5626 5625 5624 5625 5625 5625 5626 5628 5629 5632 5637 5639 5640 5640 5641 5643 5645 5647 5648 5648 5648 5649 5649 5649 5649 5650 5651 5652 5654 5656 5657 5659 5661 5661 5662 5663 5664 5666 5667 5667 5667 5668 5669 5669 5670 5672 5673 5673
5620 5618 5618 5619 5617 5618 5620 5622 5622 5625 5630 5635 5636 5635 5634 5636 5637 5639 5640 5640 5640 5640 5640 5639 5640 5640 5641 5642 5643 5645 5647 5649 5651 5653 5654 5657 5657 5658 5660 5662 5662 5662 5663 5663 5664 5665 5666 5667 5667
5615 5614 5612 5613 5612 5613 5614 5616 5617 5622 5626 5628 5627 5628 5629 5631 5633 5633 5633 5633 5633 5633 5632 5631 5631 5632 5632 5633 5634 5636 5638 5641 5644 5645 5647 5650 5652 5653 5654 5655 5655 5656 5657 5657 5658 5659 5660 5660 5660
5612 5610 5609 5609 5609 5609 5609 5613 5612 5620 5622 5621 5621 5623 5625 5626 5626 5626 5626 5625 5625 5625 5624 5623 5623 5624 5625 5625 5626 5628 5629 5631 5634 5637 5640 5642 5644 5645 5646 5647 5648 5649 5649 5650 5651 5652 5652 5653 5653
5605 5605 5607 5606 5605 5605 5604 5609 5612 5617 5616 5616 5618 5619 5619 5620 5620 5620 5620 5619 5618 5617 5616 5615 5615 5616 5617 5618 5618 5620 5621 5624 5626 5630 5632 5634 5636 5638 5639 5640 5640 5641 5642 5643 5644 5644 5645 5645 5645
5601 5603 5605 5605 5601 5600 5599 5609 5615 5612 5610 5611 5613 5614 5614 5614 5614 5614 5613 5612 5611 5609 5608 5607 5607 5607 5608 5609 5610 5611 5613 5616 5618 5621 5623 5626 5628 5630 5631 5632 5633 5633 5635 5636 5637 5637 5637 5637 5637
5599 5601 5603 5602 5598 5596 5596 5605 5611 5607 5604 5606 5607 5608 5608 5608 5608 5607 5607 5606 5604 5603 5602 5600 5599 5600 5601 5601 5602 5603 5605 5608 5610 5612 5614 5617 5619 5621 5623 5624 5624 5625 5627 5628 5629 5629 5629 5629 5628
5599 5599 5597 5598 5595 5591 5593 5600 5604 5602 5599 5601 5602 5603 5602 5602 5602 5601 5600 5599 5598 5596 5595 5593 5591 5592 5592 5593 5594 5595 5597 5600 5602 5604 5605 5608 5609 5612 5614 5615 5616 5617 5619 5620 5620 5620 5620 5620 5619
5595 5593 5594 5594 5589 5585 5591 5594 5598 5599 5596 5597 5597 5597 5597 5597 5596 5595 5594 5593 5591 5590 5588 5586 5584 5584 5585 5587 5589 5590 5591 5593 5594 5596 5597 5599 5602 5604 5606 5607 5608 5608 5610 5611 5611 5611 5611 5610 5609
5587 5588 5590 5587 5580 5580 5585 5590 5596 5594 5592 5591 5591 5591 5592 5591 5590 5588 5587 5586 5585 5583 5582 5580 5579 5578 5580 5582 5583 5583 5584 5585 5587 5588 5590 5592 5594 5595 5597 5599 5599 5599 5600 5601 5602 5601 5601 5600 5599
5583 5585 5585 5581 5577 5575 5576 5591 5595 5592 5588 5587 5586 5586 5586 5585 5585 5583 5582 5580 5578 5577 5576 5574 5573 5572 5573 5574 5575 5576 5576 5577 5579 5581 5582 5584 5585 5587 5588 5589 5590 5590 5591 5592 5592 5592 5592 5591 5589
5580 5578 5574 5571 5574 5579 5573 5582 5595 5590 5586 5585 5584 5583 5582 5580 5579 5578 5576 5574 5572 5571 5569 5567 5567 5566 5566 5567 5569 5571 5572 5573 5574 5574 5575 5576 5577 5578 5579 5580 5581 5581 5582 5583 5583 5583 5582 5581 5581
5573 5566 5565 5565 5567 5567 5568 5568 5590 5583 5582 5584 5582 5579 5577 5575 5573 5571 5569 5567 5565 5563 5561 5561 5560 5559 5559 5560 5562 5564 5565 5566 5566 5565 5567 5569 5569 5569 5570 5570 5572 5572 5573 5573 5573 5573 5572 5572 5572
5559 5559 5557 5556 5558 5559 5568 5567 5585 5583 5581 5580 5578 5574 5571 5569 5567 5565 5563 5560 5558 5556 5554 5554 5554 5553 5552 5553 5555 5557 5558 5559 5558 5558 5559 5560 5560 5560 5561 5562 5563 5563 5563 5563 5563 5563 5562 5562 5561
5555 5559 5558 5557 5557 5568 5561 5560 5576 5579 5575 5572 5570 5568 5566 5563 5562 5559 5557 5554 5552 5549 5548 5548 5547 5546 5546 5546 5547 5549 5550 5551 5551 5551 5551 5552 5552 5553 5553 5554 5554 5554 5554 5554 5553 5552 5551 5550 5550
5552 5556 5556 5559 5566 5571 5554 5559 5576 5570 5566 5563 5561 5559 5558 5556 5555 5552 5550 5548 5546 5544 5542 5541 5541 5540 5539 5539 5540 5541 5542 5543 5544 5543 5544 5544 5545 5545 5546 5545 5545 5545 5544 5544 5543 5542 5541 5540 5539
5546 5547 5549 5547 5539 5547 5563 5564 5567 5563 5561 5558 5556 5553 5552 5549 5547 5545 5543 5541 5540 5539 5537 5535 5534 5533 5532 5532 5532 5533 5534 5535 5535 5535 5535 5536 5536 5536 5537 5536 5536 5535 5534 5534 5533 5532 5531 5530 5529
5537 5540 5536 5537 5540 5550 5561 5562 5568 5561 5558 5555 5551 5549 5546 5543 5540 5538 5537 5534 5533 5531 5529 5527 5526 5526 5525 5525 5524 5525 5526 5526 5526 5526 5527 5527 5527 5527 5527 5527 5526 5525 5525 5524 5523 5522 5521 5520 5518
5525 5527 5532 5535 5536 5544 5550 5564 5564 5557 5551 5547 5544 5541 5538 5535 5532 5530 5529 5527 5525 5523 5521 5520 5519 5518 5517 5517 5517 5517 5517 5517 5518 5518 5519 5519 5518 5518 5517 5517 5516 5515 5514 5513 5513 5512 5511 5509 5507
5523 5527 5527 5527 5525 5527 5539 5553 5551 5546 5541 5537 5535 5531 5529 5526 5525 5523 5521 5520 5518 5517 5514 5513 5513 5512 5510 5509 5508 5508 5508 5508 5509 5509 5509 5508 5509 5508 5508 5506 5506 5505 5503 5502 5502 5501 5500 5498 5496